TimeAKST,TemperatureF,Dew PointF,Humidity,Sea Level PressureIn,VisibilityMPH,Wind Direction,Wind SpeedMPH,Gust SpeedMPH,PrecipitationIn,Events,Conditions,WindDirDegrees,DateUTC
12:53 AM,17.1,10.9,77,29.96,7.0,SE,5.8,-,0.00,Snow,Light Snow,130,2013-11-11 09:53:00
1:53 AM,18.0,10.9,74,29.95,9.0,Variable,6.9,-,0.00,,Overcast,0,2013-11-11 10:53:00
3:53 AM,18.0,10.9,74,29.96,10.0,SE,8.1,-,N/A,,Overcast,130,2013-11-11 12:53:00
4:53 AM,17.1,10.9,77,29.98,10.0,Calm,Calm,-,N/A,,Overcast,0,2013-11-11 13:53:00
5:53 AM,16.0,10.9,81,29.99,10.0,Calm,Calm,-,N/A,,Overcast,0,2013-11-11 14:53:00
6:53 AM,16.0,10.9,81,30.01,10.0,SE,3.5,-,N/A,,Overcast,140,2013-11-11 15:53:00
7:53 AM,15.1,10.9,84,30.04,10.0,Calm,Calm,-,N/A,,Overcast,0,2013-11-11 16:53:00
8:53 AM,14.0,10.0,84,30.06,10.0,Calm,Calm,-,N/A,,Overcast,0,2013-11-11 17:53:00
9:53 AM,15.1,10.9,84,30.09,10.0,Calm,Calm,-,N/A,,Overcast,0,2013-11-11 18:53:00
10:53 AM,16.0,12.0,84,30.12,10.0,Calm,Calm,-,N/A,,Overcast,0,2013-11-11 19:53:00
11:53 AM,18.0,12.0,78,30.13,10.0,Calm,Calm,-,N/A,,Overcast,0,2013-11-11 20:53:00
12:53 PM,19.0,10.9,71,30.14,10.0,Calm,Calm,-,N/A,,Mostly Cloudy,0,2013-11-11 21:53:00
1:53 PM,18.0,10.9,74,30.14,10.0,Calm,Calm,-,N/A,,Clear,0,2013-11-11 22:53:00
2:53 PM,12.0,7.0,80,30.16,10.0,South,3.5,-,N/A,,Clear,170,2013-11-11 23:53:00
3:53 PM,7.0,3.0,84,30.18,10.0,SSE,3.5,-,N/A,,Clear,150,2013-11-12 00:53:00
4:53 PM,3.9,-0.9,80,30.20,10.0,Calm,Calm,-,N/A,,Clear,0,2013-11-12 01:53:00
5:53 PM,3.9,-0.0,84,30.22,10.0,Calm,Calm,-,N/A,,Scattered Clouds,0,2013-11-12 02:53:00
6:53 PM,1.9,-2.0,83,30.22,10.0,Calm,Calm,-,N/A,,Scattered Clouds,0,2013-11-12 03:53:00
7:53 PM,-0.9,-6.0,79,30.22,10.0,Calm,Calm,-,N/A,,Clear,0,2013-11-12 04:53:00
8:53 PM,-2.0,-6.0,83,30.23,10.0,Calm,Calm,-,N/A,,Clear,0,2013-11-12 05:53:00
9:53 PM,-2.0,-7.1,79,30.24,10.0,Calm,Calm,-,N/A,,Mostly Cloudy,0,2013-11-12 06:53:00
10:53 PM,1.0,-4.0,79,30.24,10.0,Calm,Calm,-,N/A,,Overcast,0,2013-11-12 07:53:00
11:53 PM,3.9,-0.0,84,30.25,10.0,Calm,Calm,-,N/A,,Overcast,0,2013-11-12 08:53:00